This is the latest recevied weather packets stored in our database for station/object W8BS. If no packets are shown the sender has not sent any weather packets the latest 10 day(s).
| Time | Temp. | Humidity | Pressure | Rain* | Wind** | Luminosity | Snow |
|---|---|---|---|---|---|---|---|
| 1778020730 | 20.56° C | 49% | 1009.7 hPa | 0 mm | - | 54 W/m² | - |
| 1778020426 | 20.56° C | 48% | 1009.9 hPa | 0 mm | - | 75 W/m² | - |
| 1778020122 | 20.56° C | 49% | 1009.7 hPa | 0 mm | - | 98 W/m² | - |
| 1778019819 | 21.11° C | 48% | 1010 hPa | 0 mm | - | 96 W/m² | - |
| 1778019516 | 21.11° C | 47% | 1010 hPa | 0 mm | - | 110 W/m² | - |
| 1778019213 | 21.11° C | 47% | 1010.1 hPa | 0 mm | - | 107 W/m² | - |
| 1778018910 | 21.11° C | 47% | 1010.1 hPa | 0 mm | - | 130 W/m² | - |
| 1778018607 | 21.11° C | 46% | 1010.1 hPa | 0 mm | - | 145 W/m² | - |
| 1778018305 | 21.67° C | 46% | 1010.3 hPa | 0 mm | - | 175 W/m² | - |
| 1778018002 | 21.11° C | 47% | 1010.1 hPa | 0 mm | - | 152 W/m² | - |
| 1778017700 | 21.11° C | 47% | 1010.3 hPa | 0 mm | - | 130 W/m² | - |
| 1778017398 | 21.67° C | 46% | 1010.2 hPa | 0 mm | - | 156 W/m² | - |
| 1778017094 | 21.67° C | 46% | 1010.1 hPa | 0 mm | - | 161 W/m² | - |
| 1778016792 | 21.67° C | 46% | 1010.2 hPa | 0 mm | - | 145 W/m² | - |
| 1778016488 | 22.22° C | 45% | 1010.1 hPa | 0 mm | - | 200 W/m² | - |
| 1778016185 | 22.78° C | 46% | 1010.2 hPa | 0 mm | - | 216 W/m² | - |
| 1778015881 | 22.78° C | 44% | 1009.9 hPa | 0 mm | - | 325 W/m² | - |
| 1778015579 | 22.78° C | 44% | 1010.1 hPa | 0 mm | - | 391 W/m² | - |
| 1778015275 | 22.78° C | 46% | 1010.2 hPa | 0 mm | - | 413 W/m² | - |
| 1778014972 | 22.78° C | 47% | 1010.1 hPa | 0 mm | - | 376 W/m² | - |
| 1778014669 | 22.22° C | 47% | 1010.4 hPa | 0 mm | - | 377 W/m² | - |
| 1778014368 | 22.22° C | 48% | 1010.1 hPa | 0 mm | - | 367 W/m² | - |
| 1778014064 | 21.67° C | 47% | 1010.3 hPa | 0 mm | - | 373 W/m² | - |
| 1778013762 | 22.22° C | 47% | 1010.3 hPa | 0 mm | - | 339 W/m² | - |
| 1778013459 | 22.22° C | 47% | 1010.1 hPa | 0 mm | - | 300 W/m² | - |
* Rain latest hour (hover to see other rain measurements)
** Current wind speed in m/s (hover to see current wind gust speed)